Location: Antist
(43.1184°N, 0.1270°E)
Time: 17:54:51
(UTC+00:00)

SL-8 R/B - Pass Details

Date: 19 January 2020
Orbit: 656 x 668 km, 48.4° (Epoch: 18 February)

Event Time Altitude Azimuth Distance (km) Brightness Sun altitude
Rises 18:39:33 0° 217° (SW) 2,986 7.8 -19.0°
Reaches altitude 10° 18:42:01 10° 209° (SSW) 2,075 6.8 -19.4°
Maximum altitude 18:46:26 38° 142° (SE) 1,013 4.4 -20.2°
Enters shadow 18:46:58 36° 126° (SE) 1,037 4.3 -20.3°
